Location: Bremen
(53.0833°N, 8.8000°E)
Time: 23:30:22
(UTC+02:00)

X-37B - Pass Details

Date: 28 June 2022
Orbit: 328 x 343 km, 45.0° (Epoch: 12 August)

Event Time Altitude Azimuth Distance (km) Brightness Sun altitude
Rises 23:29:43 0° 226° (SW) 2,091 4.1 -9.5°
Reaches altitude 10° 23:32:25 10° 197° (SSW) 1,261 2.8 -9.6°
Enters shadow 23:32:59 12° 186° (S) 1,160 2.5 -9.7°
